| time (UTC) | temp F | wind direction | speed knots | gust knots | rain 1hr in | rain 24hr in | rain mn in | humidity % | barometer mb |
| 20260506071156 | 68 | 140 | 0.9 | 6.1 | 0.00 | 0.00 | 0.00 | 64 | 1009.8 |
| 20260506070656 | 68 | 103 | 1.7 | 8.7 | 0.00 | 0.00 | 0.00 | 63 | 1009.9 |
| 20260506070157 | 68 | 226 | 1.7 | 8.7 | 0.00 | 0.00 | 0.00 | 63 | 1009.9 |
| 20260506062150 | 68 | 212 | 1.7 | 6.1 | 0.00 | 0.00 | 0.00 | 62 | 1010.4 |
| 20260506061651 | 69 | 159 | 1.7 | 7.8 | 0.00 | 0.00 | 0.00 | 62 | 1010.3 |
| 20260506061148 | 69 | 248 | 1.7 | 7.8 | 0.00 | 0.00 | 0.00 | 61 | 1010.3 |
| 20260506060645 | 69 | 143 | 1.7 | 7.0 | 0.00 | 0.00 | 0.00 | 61 | 1010.3 |
| 20260506060146 | 69 | 205 | 1.7 | 7.0 | 0.00 | 0.00 | 0.00 | 61 | 1010.3 |
| 20260506051335 | 70 | 47 | 1.7 | 7.8 | 0.00 | 0.00 | 0.00 | 58 | 1010.6 |
| 20260506050605 | 70 | 115 | 1.7 | 7.8 | 0.00 | 0.00 | 0.00 | 58 | 1010.6 |
| 20260506044548 | 70 | 138 | 1.7 | 5.2 | 0.00 | 0.00 | 0.00 | 57 | 1010.8 |
| 20260506044048 | 70 | 139 | 1.7 | 3.5 | 0.00 | 0.00 | 0.00 | 57 | 1010.7 |
| 20260506043547 | 70 | 99 | 1.7 | 5.2 | 0.00 | 0.00 | 0.00 | 57 | 1010.6 |
| 20260506043048 | 70 | 102 | 1.7 | 6.1 | 0.00 | 0.00 | 0.00 | 56 | 1010.5 |
| 20260506042549 | 70 | 267 | 0.9 | 6.1 | 0.00 | 0.00 | 0.00 | 56 | 1010.7 |
| 20260506042048 | 71 | 302 | 1.7 | 7.0 | 0.00 | 0.00 | 0.00 | 55 | 1010.6 |
| 20260506041547 | 71 | 218 | 0.9 | 7.0 | 0.00 | 0.00 | 0.00 | 55 | 1010.6 |
| 20260506041536 | 71 | 58 | 0.9 | 3.5 | 0.00 | 0.00 | 0.00 | 55 | 1010.6 |
| 20260506040549 | 71 | 162 | 1.7 | 7.0 | 0.00 | 0.00 | 0.00 | 55 | 1010.7 |
| 20260506040316 | 71 | 148 | 1.7 | 7.0 | 0.00 | 0.00 | 0.00 | 55 | 1010.7 |
| 20260506035549 | 71 | 109 | 1.7 | 6.1 | 0.00 | 0.00 | 0.00 | 54 | 1010.6 |
| 20260506035048 | 71 | 155 | 1.7 | 6.1 | 0.00 | 0.00 | 0.00 | 55 | 1010.7 |
| 20260506034548 | 71 | 164 | 1.7 | 6.1 | 0.00 | 0.00 | 0.00 | 54 | 1010.6 |
| 20260506034048 | 71 | 169 | 1.7 | 7.0 | 0.00 | 0.00 | 0.00 | 54 | 1010.6 |
| 20260506033548 | 71 | 208 | 1.7 | 8.7 | 0.00 | 0.00 | 0.00 | 54 | 1010.5 |
| 20260506033050 | 71 | 161 | 1.7 | 8.7 | 0.00 | 0.00 | 0.00 | 54 | 1010.6 |
| 20260506032544 | 71 | 154 | 1.7 | 7.0 | 0.00 | 0.00 | 0.00 | 53 | 1010.6 |
| 20260506032038 | 71 | 144 | 1.7 | 3.5 | 0.00 | 0.00 | 0.00 | 53 | 1010.6 |
| 20260506031536 | 71 | 128 | 1.7 | 5.2 | 0.00 | 0.00 | 0.00 | 53 | 1010.6 |
| 20260506031038 | 71 | 115 | 0.9 | 5.2 | 0.00 | 0.00 | 0.00 | 52 | 1010.7 |
| 20260506030537 | 71 | 112 | 1.7 | 4.3 | 0.00 | 0.00 | 0.00 | 52 | 1010.7 |
| 20260506030035 | 71 | 191 | 0.9 | 7.0 | 0.00 | 0.00 | 0.00 | 52 | 1010.7 |
| 20260506025534 | 71 | 141 | 0.9 | 7.0 | 0.00 | 0.00 | 0.00 | 52 | 1010.7 |
| 20260506025034 | 71 | 126 | 0.9 | 7.0 | 0.00 | 0.00 | 0.00 | 51 | 1010.7 |
| 20260506024800 | 71 | 213 | 0.9 | 7.0 | 0.00 | 0.00 | 0.00 | 51 | 1010.8 |
| 20260506024035 | 71 | 130 | 0.9 | 2.6 | 0.00 | 0.00 | 0.00 | 50 | 1010.8 |
| 20260506023534 | 71 | 59 | 0.9 | 2.6 | 0.00 | 0.00 | 0.00 | 50 | 1010.8 |
| 20260506023254 | 71 | 74 | 0.0 | 2.6 | 0.00 | 0.00 | 0.00 | 49 | 1010.8 |
| 20260506022533 | 71 | 120 | 0.9 | 2.6 | 0.00 | 0.00 | 0.00 | 49 | 1010.8 |
| 20260506022251 | 71 | 98 | 0.9 | 3.5 | 0.00 | 0.00 | 0.00 | 49 | 1010.9 |
| 20260506021532 | 72 | 15 | 0.9 | 3.5 | 0.00 | 0.00 | 0.00 | 49 | 1010.9 |
| 20260506021030 | 72 | 216 | 0.9 | 3.5 | 0.00 | 0.00 | 0.00 | 48 | 1011.0 |
| 20260506020530 | 72 | 308 | 0.9 | 6.1 | 0.00 | 0.00 | 0.00 | 48 | 1011.0 |
| 20260506020030 | 72 | 148 | 0.9 | 6.1 | 0.00 | 0.00 | 0.00 | 47 | 1011.0 |
| 20260506015531 | 72 | 236 | 0.9 | 5.2 | 0.00 | 0.00 | 0.00 | 46 | 1010.9 |
| 20260506015030 | 72 | 286 | 0.9 | 5.2 | 0.00 | 0.00 | 0.00 | 46 | 1010.9 |
| 20260506014524 | 73 | 111 | 0.9 | 3.5 | 0.00 | 0.00 | 0.00 | 45 | 1010.8 |
| 20260506014017 | 73 | 128 | 0.9 | 4.3 | 0.00 | 0.00 | 0.00 | 44 | 1010.7 |
| 20260506013739 | 73 | 229 | 0.9 | 4.3 | 0.00 | 0.00 | 0.00 | 43 | 1010.7 |
| 20260506013005 | 73 | 111 | 0.9 | 2.6 | 0.00 | 0.00 | 0.00 | 43 | 1010.7 |
| 20260506012739 | 74 | 90 | 0.9 | 2.6 | 0.00 | 0.00 | 0.00 | 42 | 1010.5 |
| 20260506012004 | 74 | 128 | 0.9 | 1.7 | 0.00 | 0.00 | 0.00 | 42 | 1010.5 |
| 20260506011504 | 74 | 195 | 0.9 | 5.2 | 0.00 | 0.00 | 0.00 | 42 | 1010.5 |
| 20260506011004 | 74 | 250 | 0.9 | 5.2 | 0.00 | 0.00 | 0.00 | 41 | 1010.5 |
| 20260506010945 | 74 | 265 | 0.9 | 3.5 | 0.00 | 0.00 | 0.00 | 41 | 1010.3 |
| 20260506010004 | 74 | 271 | 1.7 | 6.1 | 0.00 | 0.00 | 0.00 | 41 | 1010.3 |
| 20260506005503 | 75 | 154 | 1.7 | 7.8 | 0.00 | 0.00 | 0.00 | 40 | 1010.3 |
| 20260506005003 | 75 | 208 | 0.9 | 7.8 | 0.00 | 0.00 | 0.00 | 40 | 1010.2 |
| 20260506004502 | 75 | 254 | 0.9 | 4.3 | 0.00 | 0.00 | 0.00 | 40 | 1010.1 |
| 20260506004223 | 75 | 156 | 0.9 | 4.3 | 0.00 | 0.00 | 0.00 | 39 | 1010.0 |
| 20260506003502 | 75 | 207 | 0.9 | 3.5 | 0.00 | 0.00 | 0.00 | 39 | 1010.0 |
| 20260506003004 | 76 | 248 | 0.9 | 4.3 | 0.00 | 0.00 | 0.00 | 38 | 1010.0 |
| 20260506002458 | 76 | 221 | 0.9 | 4.3 | 0.00 | 0.00 | 0.00 | 38 | 1009.9 |
| 20260506002437 | 76 | 127 | 0.9 | 7.0 | 0.00 | 0.00 | 0.00 | 37 | 1010.0 |
| 20260506001458 | 76 | 84 | 0.9 | 7.0 | 0.00 | 0.00 | 0.00 | 37 | 1009.9 |
| 20260506000958 | 76 | 137 | 0.9 | 3.5 | 0.00 | 0.00 | 0.00 | 37 | 1009.8 |
| 20260506000459 | 77 | 174 | 0.9 | 3.5 | 0.00 | 0.00 | 0.00 | 37 | 1009.7 |
| 20260505235958 | 77 | 167 | 0.9 | 3.5 | 0.00 | 0.00 | 0.00 | 36 | 1009.7 |
| 20260505235500 | 77 | 227 | 0.9 | 6.1 | 0.00 | 0.00 | 0.00 | 36 | 1009.7 |
| 20260505235000 | 78 | 243 | 1.7 | 6.1 | 0.00 | 0.00 | 0.00 | 35 | 1009.7 |
| 20260505234727 | 78 | 186 | 0.9 | 5.2 | 0.00 | 0.00 | 0.00 | 34 | 1009.6 |
| 20260505234221 | 78 | 251 | 0.9 | 4.3 | 0.00 | 0.00 | 0.00 | 35 | 1009.6 |
| 20260505233457 | 78 | 249 | 0.9 | 4.3 | 0.00 | 0.00 | 0.00 | 33 | 1009.6 |
| 20260505233451 | 79 | 17 | 0.9 | 4.3 | 0.00 | 0.00 | 0.00 | 33 | 1009.6 |
| 20260505232715 | 79 | 173 | 1.7 | 7.0 | 0.00 | 0.00 | 0.00 | 32 | 1009.6 |
| 20260505231958 | 79 | 176 | 2.6 | 7.0 | 0.00 | 0.00 | 0.00 | 31 | 1009.6 |
| 20260505231949 | 79 | 231 | 2.6 | 7.0 | 0.00 | 0.00 | 0.00 | 31 | 1009.7 |
| 20260505231000 | 80 | 174 | 1.7 | 7.0 | 0.00 | 0.00 | 0.00 | 31 | 1009.7 |
| 20260505230458 | 80 | 241 | 1.7 | 7.8 | 0.00 | 0.00 | 0.00 | 30 | 1009.6 |
| 20260505225959 | 80 | 249 | 2.6 | 7.8 | 0.00 | 0.00 | 0.00 | 30 | 1009.6 |
| 20260505225451 | 80 | 317 | 2.6 | 8.7 | 0.00 | 0.00 | 0.00 | 29 | 1009.7 |
| 20260505224944 | 80 | 254 | 2.6 | 13.0 | 0.00 | 0.00 | 0.00 | 28 | 1009.7 |
| 20260505224440 | 80 | 259 | 3.5 | 13.0 | 0.00 | 0.00 | 0.00 | 27 | 1009.7 |
| 20260505223934 | 80 | 183 | 2.6 | 12.2 | 0.00 | 0.00 | 0.00 | 28 | 1009.7 |
| 20260505223427 | 80 | 180 | 2.6 | 12.2 | 0.00 | 0.00 | 0.00 | 29 | 1009.7 |
| 20260505222922 | 80 | 167 | 1.7 | 7.0 | 0.00 | 0.00 | 0.00 | 32 | 1009.5 |
| 20260505222650 | 80 | 202 | 1.7 | 7.8 | 0.00 | 0.00 | 0.00 | 31 | 1009.5 |
| 20260505221909 | 80 | 300 | 1.7 | 7.8 | 0.00 | 0.00 | 0.00 | 31 | 1009.6 |
| 20260505221403 | 80 | 196 | 1.7 | 7.8 | 0.00 | 0.00 | 0.00 | 30 | 1009.5 |
| 20260505220900 | 80 | 298 | 1.7 | 7.8 | 0.00 | 0.00 | 0.00 | 31 | 1009.7 |
| 20260505220400 | 80 | 237 | 2.6 | 8.7 | 0.00 | 0.00 | 0.00 | 29 | 1009.6 |
| 20260505215859 | 80 | 127 | 3.5 | 8.7 | 0.00 | 0.00 | 0.00 | 29 | 1009.5 |
| 20260505215358 | 80 | 98 | 2.6 | 8.7 | 0.00 | 0.00 | 0.00 | 29 | 1009.4 |
| 20260505214900 | 80 | 196 | 3.5 | 12.2 | 0.00 | 0.00 | 0.00 | 29 | 1009.6 |
| 20260505214359 | 80 | 271 | 3.5 | 12.2 | 0.00 | 0.00 | 0.00 | 29 | 1009.5 |
| 20260505213858 | 80 | 266 | 2.6 | 13.9 | 0.00 | 0.00 | 0.00 | 28 | 1009.5 |
| 20260505213359 | 80 | 274 | 3.5 | 13.9 | 0.00 | 0.00 | 0.00 | 28 | 1009.5 |
| 20260505212859 | 81 | 333 | 3.5 | 10.4 | 0.00 | 0.00 | 0.00 | 28 | 1009.5 |
| 20260505212356 | 81 | 288 | 3.5 | 13.0 | 0.00 | 0.00 | 0.00 | 27 | 1009.4 |
| 20260505211857 | 82 | 205 | 3.5 | 14.8 | 0.00 | 0.00 | 0.00 | 28 | 1009.3 |
| 20260505211353 | 82 | 263 | 3.5 | 14.8 | 0.00 | 0.00 | 0.00 | 27 | 1009.4 |
| 20260505210853 | 82 | 153 | 3.5 | 8.7 | 0.00 | 0.00 | 0.00 | 29 | 1009.3 |
| 20260505210355 | 81 | 92 | 3.5 | 9.6 | 0.00 | 0.00 | 0.00 | 28 | 1009.4 |
| 20260505205854 | 82 | 261 | 2.6 | 9.6 | 0.00 | 0.00 | 0.00 | 29 | 1009.3 |
| 20260505205355 | 82 | 196 | 2.6 | 13.0 | 0.00 | 0.00 | 0.00 | 29 | 1009.4 |
| 20260505204854 | 82 | 216 | 3.5 | 13.0 | 0.00 | 0.00 | 0.00 | 28 | 1009.3 |
| 20260505204615 | 82 | 298 | 3.5 | 13.9 | 0.00 | 0.00 | 0.00 | 29 | 1009.4 |
| 20260505204107 | 83 | 154 | 2.6 | 13.9 | 0.00 | 0.00 | 0.00 | 29 | 1009.4 |
| 20260505203336 | 83 | 213 | 3.5 | 13.9 | 0.00 | 0.00 | 0.00 | 30 | 1009.4 |
| 20260505202830 | 83 | 286 | 3.5 | 13.9 | 0.00 | 0.00 | 0.00 | 29 | 1009.4 |
| 20260505202325 | 83 | 180 | 4.3 | 12.2 | 0.00 | 0.00 | 0.00 | 28 | 1009.4 |
| 20260505201818 | 83 | 271 | 4.3 | 13.0 | 0.00 | 0.00 | 0.00 | 27 | 1009.4 |
| 20260505201312 | 84 | 167 | 2.6 | 13.0 | 0.00 | 0.00 | 0.00 | 28 | 1009.4 |
| 20260505201044 | 85 | 259 | 3.5 | 15.6 | 0.00 | 0.00 | 0.00 | 28 | 1009.5 |
| 20260505200301 | 84 | 204 | 3.5 | 15.6 | 0.00 | 0.00 | 0.00 | 27 | 1009.4 |
| 20260505200019 | 84 | 256 | 3.5 | 13.9 | 0.00 | 0.00 | 0.00 | 28 | 1009.4 |
| 20260505195248 | 84 | 155 | 3.5 | 13.9 | 0.00 | 0.00 | 0.00 | 28 | 1009.5 |
| 20260505195004 | 84 | 207 | 3.5 | 13.9 | 0.00 | 0.00 | 0.00 | 30 | 1009.6 |
| 20260505194456 | 84 | 213 | 2.6 | 8.7 | 0.00 | 0.00 | 0.00 | 30 | 1009.5 |
| 20260505193958 | 85 | 140 | 2.6 | 8.7 | 0.00 | 0.00 | 0.00 | 31 | 1009.6 |
| 20260505193224 | 85 | 251 | 2.6 | 7.8 | 0.00 | 0.00 | 0.00 | 29 | 1009.7 |
| 20260505192719 | 86 | 215 | 2.6 | 7.8 | 0.00 | 0.00 | 0.00 | 28 | 1009.7 |
| 20260505192212 | 87 | 223 | 2.6 | 7.8 | 0.00 | 0.00 | 0.00 | 29 | 1009.7 |
| 20260505191707 | 85 | 248 | 2.6 | 14.8 | 0.00 | 0.00 | 0.00 | 29 | 1010.0 |
| 20260505191200 | 85 | 134 | 3.5 | 14.8 | 0.00 | 0.00 | 0.00 | 29 | 1009.8 |
| 20260505190655 | 85 | 222 | 3.5 | 11.3 | 0.00 | 0.00 | 0.00 | 28 | 1010.1 |
| 20260505190148 | 86 | 145 | 2.6 | 9.6 | 0.00 | 0.00 | 0.00 | 26 | 1010.1 |
| 20260505185643 | 85 | 164 | 3.5 | 10.4 | 0.00 | 0.00 | 0.00 | 30 | 1010.3 |
| 20260505185137 | 84 | 222 | 4.3 | 12.2 | 0.00 | 0.00 | 0.00 | 29 | 1010.3 |
| 20260505184631 | 84 | 161 | 3.5 | 12.2 | 0.00 | 0.00 | 0.00 | 29 | 1010.4 |
| 20260505184124 | 84 | 259 | 2.6 | 7.8 | 0.00 | 0.00 | 0.00 | 28 | 1010.5 |
| 20260505183618 | 85 | 134 | 3.5 | 9.6 | 0.00 | 0.00 | 0.00 | 29 | 1010.8 |
| 20260505183119 | 84 | 329 | 3.5 | 9.6 | 0.00 | 0.00 | 0.00 | 28 | 1010.6 |
| 20260505182619 | 85 | 182 | 3.5 | 9.6 | 0.00 | 0.00 | 0.00 | 30 | 1010.9 |
| 20260505182119 | 84 | 203 | 3.5 | 9.6 | 0.00 | 0.00 | 0.00 | 28 | 1010.7 |
| 20260505181619 | 85 | 250 | 2.6 | 7.0 | 0.00 | 0.00 | 0.00 | 29 | 1010.8 |
| 20260505181119 | 84 | 94 | 2.6 | 7.0 | 0.00 | 0.00 | 0.00 | 29 | 1010.9 |
| 20260505180620 | 84 | 126 | 2.6 | 8.7 | 0.00 | 0.00 | 0.00 | 29 | 1010.9 |
| 20260505180117 | 83 | 317 | 4.3 | 11.3 | 0.00 | 0.00 | 0.00 | 31 | 1010.9 |
| 20260505175619 | 83 | 178 | 3.5 | 11.3 | 0.00 | 0.00 | 0.00 | 30 | 1011.0 |
| 20260505175118 | 83 | 236 | 3.5 | 11.3 | 0.00 | 0.00 | 0.00 | 32 | 1011.2 |
| 20260505174618 | 83 | 198 | 3.5 | 11.3 | 0.00 | 0.00 | 0.00 | 31 | 1011.2 |
| 20260505174119 | 84 | 279 | 2.6 | 12.2 | 0.00 | 0.00 | 0.00 | 29 | 1011.1 |
| 20260505173834 | 84 | 246 | 3.5 | 12.2 | 0.00 | 0.00 | 0.00 | 30 | 1011.2 |
| 20260505173115 | 83 | 86 | 2.6 | 11.3 | 0.00 | 0.00 | 0.00 | 30 | 1011.0 |
| 20260505172617 | 85 | 217 | 1.7 | 8.7 | 0.00 | 0.00 | 0.00 | 30 | 1011.2 |
| 20260505172331 | 82 | 261 | 2.6 | 7.8 | 0.00 | 0.00 | 0.00 | 36 | 1011.1 |
| 20260505171617 | 82 | 42 | 2.6 | 9.6 | 0.00 | 0.00 | 0.00 | 33 | 1011.3 |
| 20260505171117 | 82 | 192 | 2.6 | 9.6 | 0.00 | 0.00 | 0.00 | 34 | 1011.2 |
| 20260505170611 | 82 | 240 | 3.5 | 11.3 | 0.00 | 0.00 | 0.00 | 34 | 1011.3 |
| 20260505170327 | 82 | 269 | 3.5 | 11.3 | 0.00 | 0.00 | 0.00 | 35 | 1011.4 |
| 20260505165820 | 82 | 240 | 2.6 | 8.7 | 0.00 | 0.00 | 0.00 | 36 | 1011.4 |
| 20260505165052 | 81 | 179 | 3.5 | 11.3 | 0.00 | 0.00 | 0.00 | 37 | 1011.5 |
| 20260505164546 | 82 | 201 | 2.6 | 11.3 | 0.00 | 0.00 | 0.00 | 36 | 1011.7 |
| 20260505164041 | 81 | 234 | 3.5 | 9.6 | 0.00 | 0.00 | 0.00 | 37 | 1011.7 |
| 20260505163804 | 80 | 209 | 3.5 | 12.2 | 0.00 | 0.00 | 0.00 | 37 | 1011.8 |
| 20260505163028 | 80 | 190 | 3.5 | 12.2 | 0.00 | 0.00 | 0.00 | 37 | 1012.0 |
| 20260505162523 | 80 | 234 | 2.6 | 11.3 | 0.00 | 0.00 | 0.00 | 37 | 1012.0 |
| 20260505162024 | 80 | 210 | 2.6 | 11.3 | 0.00 | 0.00 | 0.00 | 38 | 1012.2 |
| 20260505161524 | 80 | 192 | 2.6 | 9.6 | 0.00 | 0.00 | 0.00 | 38 | 1012.2 |
| 20260505161023 | 79 | 111 | 2.6 | 9.6 | 0.00 | 0.00 | 0.00 | 39 | 1012.3 |
| 20260505160523 | 79 | 141 | 2.6 | 8.7 | 0.00 | 0.00 | 0.00 | 40 | 1012.4 |
| 20260505153022 | 77 | 142 | 1.7 | 7.8 | 0.00 | 0.00 | 0.00 | 43 | 1012.5 |
| 20260505153010 | 77 | 144 | 1.7 | 7.0 | 0.00 | 0.00 | 0.00 | 41 | 1012.5 |
| 20260505152019 | 77 | 252 | 1.7 | 6.1 | 0.00 | 0.00 | 0.00 | 41 | 1012.5 |
| 20260505151521 | 76 | 207 | 1.7 | 6.1 | 0.00 | 0.00 | 0.00 | 43 | 1012.4 |
| 20260505151018 | 76 | 333 | 2.6 | 9.6 | 0.00 | 0.00 | 0.00 | 44 | 1012.5 |
| 20260505150518 | 75 | 180 | 1.7 | 9.6 | 0.00 | 0.00 | 0.00 | 46 | 1012.5 |
| 20260505140516 | 70 | 140 | 0.9 | 4.3 | 0.00 | 0.00 | 0.00 | 52 | 1012.6 |
| 20260505130242 | 63 | 215 | 1.7 | 5.2 | 0.00 | 0.00 | 0.00 | 60 | 1012.5 |
| 20260505125013 | 63 | 130 | 1.7 | 8.7 | 0.00 | 0.00 | 0.00 | 61 | 1012.7 |
| 20260505124507 | 62 | 241 | 1.7 | 8.7 | 0.00 | 0.00 | 0.00 | 61 | 1012.8 |
| 20260505124001 | 62 | 222 | 0.9 | 7.0 | 0.00 | 0.00 | 0.00 | 61 | 1012.8 |
| 20260505123455 | 62 | 265 | 1.7 | 5.2 | 0.00 | 0.00 | 0.00 | 62 | 1012.8 |
| 20260505122949 | 62 | 186 | 1.7 | 5.2 | 0.00 | 0.00 | 0.00 | 62 | 1012.8 |
| 20260505122444 | 61 | 198 | 0.9 | 5.2 | 0.00 | 0.00 | 0.00 | 63 | 1012.7 |
| 20260505121938 | 61 | 65 | 0.9 | 4.3 | 0.00 | 0.00 | 0.00 | 64 | 1012.6 |
| 20260505121433 | 61 | 217 | 1.7 | 6.1 | 0.00 | 0.00 | 0.00 | 63 | 1012.5 |
| 20260505120932 | 61 | 243 | 1.7 | 6.1 | 0.00 | 0.00 | 0.00 | 63 | 1012.4 |
| 20260505120431 | 61 | 194 | 1.7 | 6.1 | 0.00 | 0.00 | 0.00 | 63 | 1012.5 |
| 20260505115929 | 61 | 305 | 1.7 | 6.1 | 0.00 | 0.00 | 0.00 | 63 | 1012.6 |
| 20260505115430 | 60 | 304 | 1.7 | 7.0 | 0.00 | 0.00 | 0.00 | 63 | 1012.5 |
| 20260505114929 | 60 | 288 | 1.7 | 7.8 | 0.00 | 0.00 | 0.00 | 63 | 1012.6 |
| 20260505114430 | 60 | 158 | 1.7 | 7.8 | 0.00 | 0.00 | 0.00 | 64 | 1012.5 |
| 20260505113929 | 60 | 219 | 1.7 | 3.5 | 0.00 | 0.00 | 0.00 | 63 | 1012.4 |
| 20260505113428 | 60 | 241 | 0.9 | 5.2 | 0.00 | 0.00 | 0.00 | 63 | 1012.3 |
| 20260505112926 | 60 | 174 | 0.9 | 5.2 | 0.00 | 0.00 | 0.00 | 64 | 1012.3 |
| 20260505112904 | 60 | 184 | 1.7 | 6.1 | 0.00 | 0.00 | 0.00 | 63 | 1012.3 |
| 20260505111922 | 60 | 196 | 0.9 | 6.1 | 0.00 | 0.00 | 0.00 | 63 | 1012.3 |
| 20260505111422 | 60 | 204 | 1.7 | 7.8 | 0.00 | 0.00 | 0.00 | 64 | 1012.2 |
| 20260505110923 | 60 | 250 | 0.9 | 7.8 | 0.00 | 0.00 | 0.00 | 63 | 1012.1 |
| 20260505110421 | 60 | 248 | 0.9 | 6.1 | 0.00 | 0.00 | 0.00 | 63 | 1012.1 |
| 20260505110150 | 60 | 300 | 0.9 | 6.1 | 0.00 | 0.00 | 0.00 | 63 | 1012.0 |
| 20260505101852 | 60 | 250 | 1.7 | 7.8 | 0.00 | 0.00 | 0.00 | 61 | 1011.8 |
| 20260505101346 | 60 | 140 | 0.9 | 4.3 | 0.00 | 0.00 | 0.00 | 61 | 1011.8 |
| 20260505100839 | 60 | 168 | 0.9 | 4.3 | 0.00 | 0.00 | 0.00 | 61 | 1011.7 |
| 20260505100333 | 60 | 212 | 1.7 | 5.2 | 0.00 | 0.00 | 0.00 | 62 | 1011.7 |
| 20260505095827 | 60 | 211 | 1.7 | 6.1 | 0.00 | 0.00 | 0.00 | 61 | 1011.7 |
| 20260505095321 | 60 | 237 | 1.7 | 7.8 | 0.00 | 0.00 | 0.00 | 61 | 1011.7 |
| 20260505095040 | 60 | 164 | 1.7 | 7.8 | 0.00 | 0.00 | 0.00 | 61 | 1011.8 |
| 20260505094309 | 60 | 122 | 1.7 | 6.1 | 0.00 | 0.00 | 0.00 | 61 | 1011.7 |
| 20260505094029 | 60 | 203 | 1.7 | 6.1 | 0.00 | 0.00 | 0.00 | 61 | 1011.6 |
| 20260505093517 | 60 | 349 | 1.7 | 6.1 | 0.00 | 0.00 | 0.00 | 61 | 1011.6 |
| 20260505093013 | 60 | 142 | 1.7 | 6.1 | 0.00 | 0.00 | 0.00 | 61 | 1011.6 |
| 20260505092246 | 60 | 211 | 1.7 | 7.0 | 0.00 | 0.00 | 0.00 | 60 | 1011.6 |
| 20260505091739 | 60 | 218 | 1.7 | 7.0 | 0.00 | 0.00 | 0.00 | 61 | 1011.6 |
| 20260505091233 | 60 | 264 | 1.7 | 8.7 | 0.00 | 0.00 | 0.00 | 61 | 1011.5 |
| 20260505090728 | 60 | 123 | 1.7 | 8.7 | 0.00 | 0.00 | 0.00 | 60 | 1011.4 |
| 20260505090221 | 60 | 209 | 1.7 | 7.8 | 0.00 | 0.00 | 0.00 | 61 | 1011.5 |
| 20260505085715 | 60 | 217 | 1.7 | 7.8 | 0.00 | 0.00 | 0.00 | 60 | 1011.5 |
| 20260505085208 | 61 | 140 | 1.7 | 8.7 | 0.00 | 0.00 | 0.00 | 60 | 1011.4 |
| 20260505084927 | 61 | 212 | 1.7 | 8.7 | 0.00 | 0.00 | 0.00 | 60 | 1011.4 |
| 20260505084639 | 61 | 254 | 0.9 | 6.1 | 0.00 | 0.00 | 0.00 | 60 | 1011.5 |
| 20260505083653 | 61 | 286 | 0.9 | 4.3 | 0.00 | 0.00 | 0.00 | 60 | 1011.4 |
| 20260505083145 | 61 | 25 | 0.9 | 2.6 | 0.00 | 0.00 | 0.00 | 60 | 1011.3 |
| 20260505082638 | 61 | 219 | 0.9 | 3.5 | 0.00 | 0.00 | 0.00 | 60 | 1011.5 |
| 20260505082134 | 61 | 244 | 1.7 | 6.1 | 0.00 | 0.00 | 0.00 | 60 | 1011.5 |
| 20260505081627 | 61 | 239 | 1.7 | 6.1 | 0.00 | 0.00 | 0.00 | 60 | 1011.4 |
| 20260505081122 | 61 | 232 | 0.9 | 8.7 | 0.00 | 0.00 | 0.00 | 60 | 1011.4 |
| 20260505080615 | 61 | 229 | 0.9 | 8.7 | 0.00 | 0.00 | 0.00 | 60 | 1011.4 |
| 20260505080110 | 61 | 216 | 0.9 | 4.3 | 0.00 | 0.00 | 0.00 | 60 | 1011.3 |
| 20260505075603 | 61 | 257 | 0.9 | 4.3 | 0.00 | 0.00 | 0.00 | 61 | 1011.4 |
| 20260505075058 | 61 | 207 | 1.7 | 6.1 | 0.00 | 0.00 | 0.00 | 61 | 1011.3 |
| 20260505074551 | 61 | 232 | 0.9 | 6.1 | 0.00 | 0.00 | 0.00 | 61 | 1011.2 |
| 20260505074045 | 61 | 183 | 0.9 | 3.5 | 0.00 | 0.00 | 0.00 | 61 | 1011.1 |
| 20260505073539 | 61 | 199 | 0.9 | 3.5 | 0.00 | 0.00 | 0.00 | 61 | 1011.1 |
| 20260505073033 | 61 | 231 | 0.9 | 3.5 | 0.00 | 0.00 | 0.00 | 61 | 1011.1 |
| 20260505072527 | 61 | 189 | 1.7 | 6.1 | 0.00 | 0.00 | 0.00 | 61 | 1011.1 |
| 20260505072021 | 61 | 307 | 1.7 | 6.1 | 0.00 | 0.00 | 0.00 | 61 | 1011.1 |